Regional Weather Roundup
Issued by NWS

Home | Current Version | Previous Version | Graphics & Text | Print | Product List | Glossary On
Versions: 1 2 3 4 5 6 7 8 9 10 11 12 13 14 15 16 17 18 19 20 21 22 23 24 25 26 27 28 29 30 31 32 33 34 35 36 37 38 39 40 41 42 43 44 45 46 47 48 49 50
000
ASUS43 KMKX 281000
RWRWI

WISCONSIN REGIONAL WEATHER ROUNDUP
NATIONAL WEATHER SERVICE MILWAUKEE/SULLIVAN WI
500 AM CDT MON JUL 28 2014

NOTE: "FAIR" INDICATES FEW OR NO CLOUDS BELOW 12,000 FEET WITH NO
SIGNIFICANT WEATHER AND/OR OBSTRUCTIONS TO VISIBILITY.

WIZ001-002-006>008-014>016-023>028-281100-
NORTHWEST WISCONSIN

CITY           SKY/WX    TMP DP  RH WIND       PRES   REMARKS
SUPERIOR ARPT  CLOUDY    54  53  97 CALM      30.15R
ASHLAND        MOCLDY    52  50  93 SW3       30.13S
HAYWARD        FOG       47  46  97 CALM      30.16R VSB 1/2
SIREN          CLOUDY    55  54  96 CALM      30.15S
RICE LAKE      CLOUDY    56  54  94 CALM      30.16R
LADYSMITH      CLEAR     53  51  95 NW6       30.16R
EAU CLAIRE     NOT AVBL
MENOMONIE      CLOUDY    57  55  94 W5        30.15R
NEW RICHMOND   CLOUDY    58  57  97 CALM      30.16R
OSCEOLA        CLOUDY    58  58 100 CALM      30.18R
$$

WIZ003>005-009-010-017-018-281100-
NORTH CENTRAL WISCONSIN

CITY           SKY/WX    TMP DP  RH WIND       PRES   REMARKS
WOODRUFF       CLEAR     45  43  93 CALM      30.11R
RHINELANDER    CLEAR     47  45  93 W5        30.11R
EAGLE RIVER    CLEAR     46  46 100 CALM      30.09R
LAND O LAKES   CLEAR     49  46  87 N5        30.10S
PHILLIPS       PTCLDY    46  46  99 CALM      30.12R
TOMAHAWK       CLEAR     46  44  96 W3        30.12R
MEDFORD        CLEAR     49  47  95 NW5       30.12S
MERRILL        CLEAR     49  48  97 NW5       30.10R
$$

WIZ029-030-035-036-043>047-281100-
CENTRAL WISCONSIN

CITY           SKY/WX    TMP DP  RH WIND       PRES   REMARKS
WAUSAU         CLEAR     52  49  89 NW7       30.09R
MOSINEE        CLEAR     50  50 100 NW10      30.11R
MARSHFIELD     CLEAR     51  48  89 NW9       30.11R
STEVENS POINT  CLEAR     51  49  92 NW6       30.09R
WAUPACA        CLEAR     54  51  89 NW6       30.07R
WAUTOMA        NOT AVBL
WISC RAPIDS    CLEAR     53  50  89 MISG      30.11R
CAMP DOUGLAS   NOT AVBL
$$

WIZ011>013-019>022-031-037>040-048>050-281100-
NORTHEAST WISCONSIN

CITY           SKY/WX    TMP DP  RH WIND       PRES   REMARKS
ANTIGO         CLEAR     48  47  97 NW8       30.08R
STURGEON BAY   CLEAR     52  43  71 N17G25    30.01R
GREEN BAY      CLEAR     52  47  83 NW8       30.04R
MANITOWOC      NOT AVBL
APPLETON       CLEAR     52  46  82 NW10      30.05R
CLINTONVILLE   CLEAR     52  46  82 NW6       30.07R
OSHKOSH        CLEAR     54  50  86 N10       30.04R
$$

WIZ032>034-041-042-053>061-281100-
SOUTHWEST WISCONSIN

CITY           SKY/WX    TMP DP  RH WIND       PRES   REMARKS
LA CROSSE      CLEAR     55  52  89 N6        30.13R
SPARTA         CLEAR     51  48  90 CALM      30.12S
VIROQUA        FAIR      53  53  99 N6        30.12R
BOSCOBEL       CLEAR     57  52  83 VRB3      30.11R
PRAIRIE DU CHI CLEAR     59  51  75 NW7       30.10R
PLATTEVILLE    FAIR      56  53  89 N9        30.09R
$$

WIZ056-057-062-063-064-067-068-281100-
SOUTH CENTRAL WISCONSIN

CITY           SKY/WX    TMP DP  RH WIND       PRES   REMARKS
BARABOO/DELLS  CLEAR     54  50  88 NW7       30.08R
LONE ROCK      NOT AVBL
WATERTOWN      CLEAR     55  50  85 N8        30.03R
MADISON        CLEAR     56  51  84 NW9       30.06R
MIDDLETON      FAIR      56  52  85 N5        30.07R
MONROE         CLEAR     55  52  88 N8        30.05R
JANESVILLE     CLEAR     57  50  77 N10       30.02R
$$

WIZ051-052-058>065-066-070>072-281100-
SOUTHEAST WISCONSIN

CITY           SKY/WX    TMP DP  RH WIND       PRES   REMARKS
MILWAUKEE      CLEAR     57  48  72 NW9       29.99R
WAUKESHA       CLEAR     52  46  82 NW9       30.01R
MILWAUKEE/TIMM CLEAR     54  46  76 N9        30.00R
RACINE         CLEAR     58  49  72 NW10      30.00R
BURLINGTON     CLEAR     53  51  93 NW9       29.99R
KENOSHA        CLEAR     56  50  80 NW8       29.99R
FOND DU LAC    CLEAR     54  48  80 N12       30.04R
SHEBOYGAN      CLEAR     53  47  79 NW12      29.99R
WEST BEND      CLEAR     52  45  76 NW10      30.00R
JUNEAU         CLEAR     53  48  84 NW8       30.04R
$$

LSZ147-162-281100-
LAKE SUPERIOR

STATION/POSITION TIME  TEMP    WIND        PRES    WAVE
                       AIR SEA DIR/SP/G            HT/PER
                 (UTC) (F)     (DEG/KT/KT) (MB)    (FT/S)
W MID LAKE BUOY  0850   49 42  280/ 10/ 12 1018.6S   1
PORT WING        0900   52     160/  4/  4 1020.3R
SAXON HARBOR     0940           CALM  /  4 1020.0R
$$

LMZ867-665-643>646-281100-
LAKE MICHIGAN

STATION/POSITION TIME  TEMP    WIND        PRES    WAVE
                       AIR SEA DIR/SP/G            HT/PER
                 (UTC) (F)     (DEG/KT/KT) (MB)    (FT/S)
N MID LAKE BUOY  0850   53 54  360/ 23/ 25 1013.3R   4/ 5
NORTHPORT PIER   0900   55     340/ 23/ 27 1015.6R
KEWAUNEE LAKESHO 0900   55     340/ 11/ 18 1015.6R
SHEBOYGAN LAKESH 0900   59     330/ 15/ 19 1015.1R
PORT WASHINGTON  0900   58     320/  7/ 10 1015.6R
ATWATER BUOY     0900   60     340/ 14     1015.5R
MILWAUKEE LAKESH 0900   59     330/ 10/ 14   N/A
S MID LAKE BUOY  0850   59 59  340/ 23/ 29 1012.3R   7/ 7
KENOSHA   LAKESH 0900   60     340/ 13/ 17 1014.2R
$$

TC  - TEMPERATURE IN CELSIUS
VSB - VISIBILITY IN STATUTE MILES
WCI - WIND CHILL INDEX
HX  - HEAT INDEX




USA.gov is the U.S. government's official web portal to all federal, state and local government web resources and services.